Daviess Cnty AP, Washington,, IN

9:17 PM EDT on August 20, 2019 (GMT -0400)
Daviess County

Weather History for KDCY - June, 2019

Change the Weather History Date:

Wednesday, June 5, 2019

  Actual Average (KLWV) Record (KLWV)
Temperature  
Mean Temperature 78 °F -  
Max Temperature 89 °F 77 °F 93 °F (2005)
Min Temperature 68 °F 59 °F 48 °F (1998)
Cooling Degree Days 14    
Growing Degree Days 28 (Base 50)    
Moisture  
Dew Point 68 °F    
Average Humidity 75    
Maximum Humidity 100    
Minimum Humidity 53    
Precipitation  
Precipitation 0.62 in - - ()
Sea Level Pressure  
Sea Level Pressure 29.82 in    
Wind  
Wind Speed 9 mph (SW)    
Max Wind Speed 25 mph    
Max Gust Speed 38 mph    
Visibility 10 miles    
Events Rain , Thunderstorm    
Averages and records for this station are not official NWS values.
T = Trace of Precipitation, MM = Missing Value Source: NWS Daily Summary

Daily Weather History Graph

Daily Weather History Graph

Search for Another Location

Airport or City:

Astronomy

Jun. 05, 2019 Rise Set
Actual Time 6:24 AM EDT 9:09 PM EDT
Civil Twilight 5:52 AM EDT 9:41 PM EDT
Nautical Twilight 5:13 AM EDT 10:20 PM EDT
Astronomical Twilight 4:28 AM EDT 11:05 PM EDT
Moon 8:29 AM EDT (6/5) 11:36 PM EDT (6/5)
Length of Visible Light 15h 48m
Length of Day
14h 45m
Waxing Crescent, 6% of the Moon is Illuminated
Jun 5
Waxing Crescent
Jun 10
First Quarter
Jun 17
Full
Jun 25
Last Quarter
Jul 2
New

Hourly Weather History & Observations

Time (EDT) Temp. Heat Index Dew Point Humidity Pressure Visibility Wind Dir Wind Speed Gust Speed Precip Events Conditions
12:15 AM 74.5 °F - 64.9 °F 72% 29.88 in 10.0 mi South 9.2 mph - N/A   Overcast
12:35 AM 73.4 °F - 64.9 °F 75% 29.88 in 10.0 mi South 6.9 mph - N/A   Scattered Clouds
12:55 AM 73.4 °F - 65.1 °F 75% 29.88 in 10.0 mi South 6.9 mph - N/A   Clear
1:15 AM 73.4 °F - 65.1 °F 75% 29.88 in 10.0 mi SSW 8.1 mph - N/A   Scattered Clouds
1:35 AM 74.1 °F - 64.9 °F 73% 29.88 in 10.0 mi SSW 11.5 mph - N/A   Scattered Clouds
1:55 AM 74.3 °F - 65.3 °F 73% 29.87 in 10.0 mi SSW 9.2 mph - N/A   Mostly Cloudy
2:15 AM 74.3 °F - 65.5 °F 74% 29.87 in 10.0 mi SSW 9.2 mph - N/A   Overcast
2:35 AM 74.3 °F - 65.5 °F 74% 29.87 in 10.0 mi SW 10.4 mph - N/A   Overcast
2:55 AM 74.3 °F - 65.3 °F 73% 29.88 in 10.0 mi SW 8.1 mph - N/A   Overcast
3:15 AM 74.3 °F - 64.6 °F 72% 29.87 in 10.0 mi WSW 5.8 mph - N/A   Scattered Clouds
3:35 AM 73.4 °F - 64.2 °F 73% 29.86 in 10.0 mi WSW 5.8 mph - N/A   Scattered Clouds
3:55 AM 73.4 °F - 63.5 °F 71% 29.85 in 10.0 mi SSW 5.8 mph - N/A   Scattered Clouds
4:15 AM 73.0 °F - 63.5 °F 72% 29.85 in 10.0 mi SSW 6.9 mph - N/A Rain Light Rain
4:35 AM 72.3 °F - 63.9 °F 75% 29.86 in 10.0 mi SW 5.8 mph - N/A   Mostly Cloudy
4:55 AM 71.8 °F - 63.7 °F 76% 29.85 in 10.0 mi SW 6.9 mph - N/A   Scattered Clouds
5:15 AM 71.6 °F - 63.5 °F 76% 29.85 in 10.0 mi SSW 10.4 mph - N/A Rain Light Rain
5:35 AM 71.2 °F - 63.7 °F 77% 29.85 in 10.0 mi SSW 8.1 mph - N/A Rain , Thunderstorm Light Thunderstorms and Rain
5:55 AM 69.8 °F - 64.9 °F 84% 29.85 in 10.0 mi SSW 9.2 mph - N/A   Light Drizzle
6:15 AM 69.8 °F - 64.4 °F 83% 29.86 in 10.0 mi SW 11.5 mph 20.7 mph N/A   Light Drizzle
6:35 AM 69.3 °F - 65.3 °F 87% 29.86 in 10.0 mi SW 8.1 mph - N/A   Light Drizzle
6:55 AM 68.9 °F - 66.9 °F 93% 29.86 in 10.0 mi SSW 4.6 mph - N/A   Overcast
7:15 AM 68.5 °F - 67.6 °F 97% 29.86 in 10.0 mi SSW 5.8 mph - N/A   Overcast
7:35 AM 68.7 °F - 68.4 °F 99% 29.86 in 10.0 mi SSW 5.8 mph - N/A Thunderstorm Overcast
7:55 AM 68.9 °F - 68.9 °F 100% 29.86 in 10.0 mi SSW 6.9 mph - N/A   Overcast
8:15 AM 69.1 °F - 68.9 °F 99% 29.85 in 10.0 mi SSW 8.1 mph - N/A   Scattered Clouds
8:35 AM 70.9 °F - 69.3 °F 95% 29.85 in 10.0 mi SSW 10.4 mph - N/A   Clear
8:55 AM 72.0 °F - 68.9 °F 90% 29.84 in 10.0 mi SW 12.7 mph 19.6 mph N/A   Scattered Clouds
9:15 AM 73.9 °F - 67.8 °F 81% 29.83 in 10.0 mi SW 10.4 mph 17.3 mph N/A   Scattered Clouds
9:35 AM 75.6 °F - 68.2 °F 78% 29.83 in 10.0 mi SW 12.7 mph 18.4 mph N/A   Scattered Clouds
9:55 AM 75.6 °F - 68.0 °F 77% 29.82 in 10.0 mi WSW 12.7 mph 18.4 mph N/A   Mostly Cloudy
10:15 AM 77.0 °F - 68.4 °F 75% 29.82 in 10.0 mi WSW 12.7 mph 18.4 mph N/A   Mostly Cloudy
10:35 AM 77.4 °F - 68.5 °F 74% 29.82 in 10.0 mi WSW 11.5 mph 17.3 mph N/A   Mostly Cloudy
10:55 AM 77.9 °F - 68.7 °F 73% 29.82 in 10.0 mi SW 11.5 mph - N/A   Mostly Cloudy
11:15 AM 78.8 °F - 69.1 °F 72% 29.82 in 10.0 mi WSW 9.2 mph - N/A   Overcast
11:35 AM 80.4 °F 83.4 °F 69.1 °F 68% 29.82 in 10.0 mi West 11.5 mph - N/A   Mostly Cloudy
11:55 AM 81.1 °F 84.4 °F 69.4 °F 67% 29.82 in 10.0 mi WSW 11.5 mph 19.6 mph N/A   Overcast
12:15 PM 82.2 °F 86.0 °F 70.0 °F 66% 29.83 in 10.0 mi West 11.5 mph 18.4 mph N/A   Mostly Cloudy
12:35 PM 82.8 °F 86.7 °F 70.0 °F 65% 29.82 in 10.0 mi WSW 10.4 mph 19.6 mph N/A   Mostly Cloudy
12:55 PM 83.5 °F 87.7 °F 70.2 °F 64% 29.82 in 10.0 mi West 11.5 mph 17.3 mph N/A   Scattered Clouds
1:15 PM 85.1 °F 90.1 °F 70.7 °F 62% 29.81 in 10.0 mi WSW 8.1 mph 16.1 mph N/A   Scattered Clouds
1:35 PM 84.9 °F 89.7 °F 70.5 °F 62% 29.81 in 10.0 mi SW 6.9 mph - N/A   Mostly Cloudy
1:55 PM 86.0 °F 91.1 °F 70.5 °F 60% 29.80 in 10.0 mi West 8.1 mph - N/A   Scattered Clouds
2:15 PM 87.1 °F 92.4 °F 70.5 °F 58% 29.80 in 10.0 mi SW 11.5 mph 18.4 mph N/A   Clear
2:35 PM 87.8 °F 93.4 °F 70.7 °F 57% 29.80 in 10.0 mi WSW 12.7 mph 19.6 mph N/A   Scattered Clouds
2:55 PM 88.3 °F 94.5 °F 71.2 °F 57% 29.79 in 10.0 mi SW 13.8 mph 17.3 mph N/A   Scattered Clouds
3:15 PM 88.0 °F 93.8 °F 70.9 °F 57% 29.78 in 10.0 mi SW 12.7 mph - N/A   Scattered Clouds
3:35 PM 89.6 °F 96.2 °F 71.4 °F 55% 29.77 in 10.0 mi WSW 11.5 mph 18.4 mph N/A   Scattered Clouds
3:55 PM 89.2 °F 94.9 °F 70.9 °F 54% 29.77 in 10.0 mi SW 13.8 mph 21.9 mph N/A   Scattered Clouds
4:15 PM 89.6 °F 96.2 °F 71.4 °F 55% 29.75 in 10.0 mi SW 11.5 mph 17.3 mph N/A   Scattered Clouds
4:35 PM 89.4 °F 94.8 °F 70.2 °F 53% 29.74 in 10.0 mi SW 17.3 mph 23.0 mph N/A Thunderstorm Scattered Clouds
4:55 PM 87.3 °F 92.0 °F 70.0 °F 56% 29.74 in 10.0 mi WSW 13.8 mph 20.7 mph N/A   Mostly Cloudy
5:15 PM 86.7 °F 91.7 °F 70.5 °F 58% 29.74 in 10.0 mi WSW 9.2 mph - N/A   Mostly Cloudy
5:35 PM 86.9 °F 92.1 °F 70.7 °F 58% 29.74 in 10.0 mi WSW 8.1 mph - N/A   Mostly Cloudy
5:55 PM 87.8 °F 93.8 °F 71.2 °F 58% 29.72 in 10.0 mi WSW 10.4 mph - N/A   Scattered Clouds
6:15 PM 86.7 °F 92.1 °F 70.9 °F 59% 29.73 in 10.0 mi WSW 10.4 mph 18.4 mph N/A   Clear
6:35 PM 85.8 °F 91.1 °F 70.9 °F 61% 29.73 in 10.0 mi West 10.4 mph 18.4 mph N/A   Clear
6:55 PM 84.2 °F 89.0 °F 70.9 °F 64% 29.73 in 10.0 mi WSW 8.1 mph - N/A   Clear
7:35 PM 81.9 °F 84.6 °F 67.5 °F 62% 29.72 in 10.0 mi WSW 15.0 mph 18.4 mph N/A Thunderstorm Clear
7:55 PM 80.6 °F 82.7 °F 66.0 °F 61% 29.75 in 10.0 mi West 10.4 mph - N/A   Scattered Clouds
8:15 PM 70.3 °F - 62.4 °F 76% 29.79 in 10.0 mi NE 21.9 mph 38.0 mph N/A   Overcast
8:35 PM 70.0 °F - 65.3 °F 85% 29.84 in 10.0 mi North 25.3 mph 31.1 mph N/A Rain , Thunderstorm Light Thunderstorms and Rain
8:55 PM 68.2 °F - 68.0 °F 99% 29.86 in 1.8 mi NNW 11.5 mph 31.1 mph 0.45 in Rain , Thunderstorm Heavy Thunderstorms and Rain
9:15 PM 69.1 °F - 68.9 °F 99% 29.83 in 7.0 mi NW 5.8 mph - 0.14 in Rain , Thunderstorm Light Thunderstorms and Rain
9:35 PM 68.9 °F - 68.9 °F 100% 29.82 in 10.0 mi West 3.5 mph - 0.16 in Rain Light Rain
9:55 PM 69.3 °F - 69.1 °F 99% 29.80 in 10.0 mi WNW 4.6 mph - 0.17 in Rain Light Rain
10:15 PM 69.6 °F - 68.2 °F 95% 29.80 in 10.0 mi West 6.9 mph - N/A   Scattered Clouds
10:35 PM 69.6 °F - 68.7 °F 97% 29.81 in 10.0 mi WSW 9.2 mph - N/A Rain Light Rain
10:55 PM 69.8 °F - 69.3 °F 98% 29.81 in 10.0 mi WSW 8.1 mph - N/A   Scattered Clouds
11:15 PM 70.3 °F - 68.9 °F 95% 29.83 in 10.0 mi Calm Calm - N/A   Clear
11:35 PM 69.8 °F - 69.4 °F 99% 29.82 in 10.0 mi SSE 6.9 mph - N/A   Clear
11:55 PM 69.1 °F - 68.9 °F 99% 29.81 in 10.0 mi South 3.5 mph - N/A   Clear